AO-07 1 07530U 74089B 16329.86008699 -.00000023 00000-0 13356-3 0 9997 2 07530 101.5996 296.8363 0012218 0.3069 53.3460 12.53624367923258 FO-29 1 24278U 96046B 16329.18885073 -.00000014 00000-0 19983-4 0 9999 2 24278 98.5832 233.4515 0350952 148.2048 214.0813 13.53071603 1159 RS-22 1 27939U 03042A 16329.84836164 .00000221 00000-0 48249-4 0 9996 2 27939 97.9102 115.5590 0013710 150.1229 10.2204 14.66491256703360 AO-73 1 39444U 13066AE 16328.86340242 .00000425 00000-0 59624-4 0 9990 2 39444 097.6610 015.5406 0057906 217.6334 142.0822 14.81259985160625 EO-79 1 40025U 14033R 16329.69651446 .00000580 00000-0 68931-4 0 9998 2 40025 97.9195 235.0247 0011230 256.5439 103.4526 14.88224242132078 XW-2A 1 40903U 15049E 16329.84958987 .00003788 00000-0 10469-3 0 9993 2 40903 97.4383 347.0051 0013611 281.1852 78.7863 15.37598897 66239 XW-2C 1 40906U 15049H 16329.79340628 .00001267 00000-0 73056-4 0 9999 2 40906 97.4542 333.4671 0014886 196.5604 163.5144 15.14083186 65302 LILACSAT-2 1 40908U 15049K 16329.85902148 .00000694 00000-0 43059-4 0 9992 2 40908 97.4610 333.2931 0015908 191.2528 168.8350 15.12843353 65271 UO-11 1 14781U 84021B 16329.16834591 .00000130 00000-0 22390-4 0 9998 2 14781 97.7286 16.0915 0009387 143.7352 216.4500 14.82829445759967 LO-19 1 20442U 90005G 16329.39988334 .00000023 00000-0 24415-4 0 9999 2 20442 98.5569 262.1962 0012508 37.1754 323.0294 14.32839878402290 AO-27 1 22825U 93061C 16329.87926502 .00000011 00000-0 21771-4 0 9992 2 22825 98.7825 287.2926 0007894 201.7874 158.2973 14.29977501208205 IO-26 1 22826U 93061D 16329.11763804 .00000027 00000-0 28045-4 0 9992 2 22826 98.7767 286.6303 0008538 194.8707 165.2225 14.30304250208267 GO-32 1 25397U 98043D 16329.38876600 .00000000 00000-0 18867-4 0 9993 2 25397 98.5861 270.3032 0000635 173.2246 186.8942 14.23609120954656 NO-44 1 26931U 01043C 16328.89569611 -.00000013 00000-0 26910-4 0 9991 2 26931 67.0517 260.8634 0005626 277.2493 82.7968 14.30436183790987 SO-50 1 27607U 02058C 16329.55819774 .00000109 00000-0 36511-4 0 9994 2 27607 64.5567 30.8420 0049003 178.5272 181.5984 14.75251803748924 CO-55 1 27844U 03031E 16329.81354998 .00000103 00000-0 66378-4 0 9998 2 27844 98.6921 335.7923 0009120 213.5058 146.5543 14.21996438695274 CO-57 1 27848U 03031J 16329.54718984 .00000078 00000-0 55526-4 0 9995 2 27848 98.7017 335.6982 0008892 223.7220 136.3254 14.21616827695129 CO-65 1 32785U 08021C 16329.52062247 .00000419 00000-0 51527-4 0 9993 2 32785 97.5871 356.9373 0014482 123.1625 237.0983 14.87736067464464 PRISM 1 33493U 09002B 16329.89235711 .00000350 00000-0 37532-4 0 9992 2 33493 98.1935 197.3891 0016859 38.4204 321.8204 14.95313370425240 TISAT-1 1 36799U 10035E 16329.82615707 .00000725 00000-0 80995-4 0 9999 2 36799 98.0437 82.7429 0011187 278.6950 81.3000 14.90118362345340 ALMASAT-1 1 38078U 12006B 16329.83762907 .00025788 37395-5 31193-3 0 9990 2 38078 69.4469 318.2227 0352647 230.1744 126.7903 15.12045241253798 DUCHIFAT-1 1 40021U 14033M 16329.70939947 .00000850 00000-0 94935-4 0 9994 2 40021 97.9235 236.5231 0011777 254.0470 105.9450 14.89610311132151 NANOSATCBR1 1 40024U 14033Q 16329.21838056 .00000580 00000-0 67690-4 0 9990 2 40024 97.9205 235.2212 0011031 256.1678 103.8312 14.88975294132047 DTUSAT-2 1 40030U 14033W 16329.78482060 .00000541 00000-0 65218-4 0 9990 2 40030 97.9168 234.4240 0010689 249.4759 110.5310 14.87852825132065 ANTELSAT 1 40034U 14033AA 16329.62981909 .00000384 00000-0 65361-4 0 9997 2 40034 97.8828 213.5735 0058046 229.8397 129.7721 14.73547932130800 MET-2/21 1 22782U 93055A 16329.19541586 .00000007 00000-0 -67292-5 0 9992 2 22782 82.5491 186.2615 0021422 287.1734 212.6036 13.83794397173346 NOAA-15 1 25338U 98030A 16329.50966881 .00000057 00000-0 42791-4 0 9994 2 25338 98.7847 333.9980 0011656 81.7883 278.4618 14.25765000963830 NOAA-18 1 28654U 05018A 16329.95248685 .00000373 00000-0 22780-3 0 9992 2 28654 99.1933 341.0495 0013651 285.2137 74.7530 14.12316734593422 NOAA-19 1 33591U 09005A 16329.50456565 .00000096 00000-0 77290-4 0 9996 2 33591 99.0630 287.7610 0014706 125.3477 234.9070 14.12129139401764 HUBBLE 1 20580U 90037B 16329.66064815 .00000800 00000-0 38689-4 0 9997 2 20580 28.4703 278.8181 0002967 131.3214 235.0658 15.08601932259364 ISS 1 25544U 98067A 16329.94908238 .00003399 00000-0 59410-4 0 9991 2 25544 51.6452 336.3657 0006191 250.9932 191.1022 15.53721009 29993 CO-58 1 28895U 05043F 16329.45186755 .00000265 00000-0 59819-4 0 9995 2 28895 97.8429 135.4651 0018142 73.1852 287.1340 14.63302120590540 AAUSAT2 1 32788U 08021F 16329.65043376 .00001128 00000-0 11208-3 0 9991 2 32788 97.5852 7.0886 0013628 94.8127 265.4650 14.93559374465144 DO-64 1 32789U 08021G 16328.77579893 .00002935 00000-0 21587-3 0 9990 2 32789 97.5882 25.1239 0014224 82.1747 278.1093 15.04092314465985 CO-66 1 32791U 08021J 16329.63637647 .00000686 00000-0 76550-4 0 9993 2 32791 97.5868 0.7525 0014981 111.3625 248.9193 14.90005837464689 RS-30 1 32953U 08025A 16329.85169783 .00000028 00000-0 13323-3 0 9990 2 32953 82.5042 6.7372 0018975 15.4050 344.7604 12.43072990386030 JUGNU 1 37839U 11058B 16328.86210034 .00000335 00000-0 36726-4 0 9998 2 37839 19.9612 255.4410 0019112 80.5507 327.0521 14.12563573264638 SRMSAT 1 37841U 11058D 16329.35670513 .00000315 00000-0 28085-4 0 9995 2 37841 19.9726 289.9122 0011781 352.4060 143.8779 14.10558914264324 AO-71 1 37854U 11061E 16329.30629519 .00001904 00000-0 11119-3 0 9992 2 37854 101.7007 92.7830 0170218 320.8916 38.0090 15.03169320276142 HRBE 1 37855U 11061F 16329.30650136 .00001622 00000-0 94298-4 0 9999 2 37855 101.7127 90.7357 0183589 326.1593 32.8009 15.02108521276027 HORYU-2 1 38340U 12025D 16328.91684065 .00000343 00000-0 58902-4 0 9995 2 38340 098.3682 319.7306 0010817 220.5045 139.5359 14.75191132232613 RS-40 1 38735U 12041C 16329.85716732 .00000011 00000-0 49322-5 0 9991 2 38735 82.4760 91.5958 0017643 113.6633 246.6301 12.42574374196328 BEESAT-3 1 39134U 13015E 16328.91286799 .00001553 00000-0 88086-4 0 9999 2 39134 064.8685 168.5459 0019533 301.8703 058.0522 15.16906169197957 BEESAT-2 1 39136U 13015G 16328.97816402 .00001318 00000-0 81672-4 0 9990 2 39136 64.8689 176.3047 0020314 306.8748 53.0513 15.14375509198194 ZACUBE-1 1 39417U 13066B 16329.73060023 .00000426 00000-0 60678-4 0 9995 2 39417 97.6596 15.5722 0058691 217.3013 142.4118 14.80558277162520 TRITON-1 1 39427U 13066M 16329.00807975 .00000251 00000-0 48782-4 0 9999 2 39427 97.6529 351.9904 0113152 286.0501 72.8268 14.67325951160958 GOMX-1 1 39430U 13066Q 16329.56606860 .00000417 00000-0 85431-4 0 9990 2 39430 97.6641 338.2718 0151439 329.7100 29.5411 14.58735845160099 LO-74 1 39440U 13066AA 16329.01976447 .00000306 00000-0 50357-4 0 9998 2 39440 97.6547 5.7402 0079674 245.2963 113.9937 14.75309223161841 SPROUT 1 39770U 14029E 16329.80286315 .00001058 00000-0 12778-3 0 9998 2 39770 97.8738 65.2868 0007905 279.0440 80.9874 14.85821200135783 EO-80 1 40032U 14033Y 16328.80921272 .00000549 00000-0 66189-4 0 9993 2 40032 97.9175 233.4587 0010617 253.5432 106.4617 14.87786815131904 VELOX-1 1 40057U 14034E 16329.77711737 .00000481 00000-0 75975-4 0 9999 2 40057 98.1917 60.9814 0010916 0.4319 359.6898 14.76921574129584 DAURIA DX 1 1 40071U 14037C 16329.75023815 .00000196 00000-0 32701-4 0 9992 2 40071 98.3320 66.8600 0008572 359.2330 0.8867 14.80921759128716 UKUBE-1 1 40074U 14037F 16329.84137110 .00000456 00000-0 62906-4 0 9998 2 40074 98.3376 69.7997 0004599 7.7605 352.3670 14.83293388128884 HODOYOSHI-1 1 40299U 14070B 16329.74086381 .00001049 00000-0 49164-4 0 9996 2 40299 97.4199 49.4741 0015071 88.4323 68.8841 15.21812905113842 CHUBUSAT-1 1 40300U 14070C 16329.77014561 .00001085 00000-0 52711-4 0 9995 2 40300 97.4145 47.2738 0022627 96.3042 18.3506 15.20369481113729 QSAT-EOS 1 40301U 14070D 16329.76162676 .00002419 00000-0 10723-3 0 9994 2 40301 97.4087 46.8459 0030162 94.6465 21.3052 15.22176611113726 FIREBIRD FU3 1 40377U 15003B 16329.81753188 .00003341 00000-0 14954-3 0 9999 2 40377 99.1029 107.4652 0139294 319.2390 39.8479 15.13969905100079 FIREBIRD FU4 1 40378U 15003C 16329.68028823 .00003295 00000-0 14738-3 0 9994 2 40378 99.1031 107.3240 0139495 319.6247 39.4688 15.13987644100059 GRIFEX 1 40379U 15003D 16329.82033130 .00002184 00000-0 10418-3 0 9995 2 40379 99.1044 106.0959 0144477 324.3696 34.7949 15.11885349 99999 NO-84 1 40654U 15025D 16329.30223749 .00010493 00000-0 20769-3 0 02956 2 40654 054.9961 069.5355 0197518 111.9512 250.2790 15.29454610048508 NO-83 1 40655U 15025E 16329.45370442 .00016617 00000-0 28435-3 0 03263 2 40655 054.9833 056.0803 0173379 118.8598 243.0262 15.36437897048684 DEORBITSAIL 1 40719U 15032E 16328.77132706 .00000753 00000-0 11712-3 0 9995 2 40719 97.9992 218.8524 0017920 83.6820 276.6430 14.75805343 74025 NUDT-PHONESAT 1 40900U 15049B 16329.79723218 .00003803 00000-0 18917-3 0 9995 2 40900 97.4449 334.8125 0013534 212.6985 147.3413 15.18147520 65432 XW-2D 1 40907U 15049J 16329.85476578 .00001348 00000-0 77352-4 0 9994 2 40907 97.4510 333.3473 0014305 194.3086 165.7743 15.14156381 65311 XW-2F 1 40910U 15049M 16329.82936643 .00001981 00000-0 10987-3 0 9992 2 40910 97.4536 333.7035 0015251 193.1643 166.9193 15.14828755 65209 XW-2B 1 40911U 15049N 16329.79042040 .00001319 00000-0 75812-4 0 9992 2 40911 97.4556 333.5510 0014195 194.7539 165.3280 15.14129068 65206 DCBB 1 40912U 15049P 16329.84114733 .00001652 00000-0 87156-4 0 9992 2 40912 97.4531 334.9602 0015492 187.4319 294.4737 15.16846583 65305 TW-1C 1 40926U 15051B 16329.85097870 .00007290 00000-0 18771-3 0 9993 2 40926 97.2572 5.1613 0012745 182.1832 264.3095 15.39443782 65450 TW-1A 1 40928U 15051D 16329.82151601 .00002932 00000-0 89795-4 0 9998 2 40928 97.2533 3.2441 0012452 204.4394 241.9836 15.34541478 65341 IO-86 1 40931U 15052B 16329.44055500 .00000733 00000-0 13115-4 0 9992 2 40931 6.0003 252.5702 0013440 230.3082 129.5950 14.76499452 62652 GomX-3 1 40949U 98067HA 16292.18357804 .08527750 12374-4 77882-3 0 9992 2 40949 51.6055 106.7696 0006699 286.1344 73.8944 16.38002265 59645 LQSat 1 40958U 15057A 16329.77241259 .00000076 00000-0 19708-4 0 9994 2 40958 98.0004 42.4332 0018419 4.9500 355.1884 14.72924626 61024 AO-85 1 40967U 15058D 16329.38981339 .00000548 00000-0 80444-4 0 03254 2 40967 064.7757 120.0155 0184334 152.6634 208.4355 14.75243120046903 ATHENOXAT-1 1 41168U 15077C 16329.19126479 .00002742 00000-0 12104-3 0 9996 2 41168 14.9876 226.1365 0012230 56.5854 30.5181 15.10787531 51982 ChubuSat-2 1 41338U 16012B 16329.21546822 .00000502 00000-0 32918-4 0 9994 2 41338 31.0044 333.8878 0013986 190.8745 169.1589 14.99576584 42197 ChubuSat-3 1 41339U 16012C 16329.37222878 .00000483 00000-0 31223-4 0 9990 2 41339 31.0137 332.3782 0013818 199.0535 160.9584 14.99794434 42191 Horyu-4 1 41340U 16012D 16329.22739083 .00000778 00000-0 53729-4 0 9999 2 41340 31.0063 332.0516 0014327 203.3374 156.6611 15.00327129 42200 OUFTI-1 1 41458U 16025C 16329.54844183 .00003014 00000-0 16762-3 0 9997 2 41458 98.2046 349.2904 0177305 252.7859 105.3890 15.02164750 31848 e-st@r-II 1 41459U 16025D 16328.88675845 .00002263 00000-0 12735-3 0 9992 2 41459 098.2029 348.5700 0177667 255.1837 102.9649 15.02066276031748 AAUSAT4 1 41460U 16025E 16329.84609138 .00002626 00000-0 14906-3 0 9998 2 41460 98.2009 349.6384 0169358 250.7901 107.4937 15.02627124 31890 MinXSS 1 41474U 98067HU 16329.58626635 .00054058 00000-0 46638-3 0 9994 2 41474 51.6429 328.8862 0004295 42.8345 317.2986 15.68694663 30005 CADRE 1 41475U 98067HV 16329.80380975 .00213138 00000-0 94970-3 0 9992 2 41475 51.6343 321.9816 0007311 63.8806 296.2949 15.83103083 30116 NODES 1 1 41477U 98067HX 16329.39109877 .00031206 00000-0 31976-3 0 9999 2 41477 51.6380 332.0422 0003632 31.7400 328.3814 15.64678535 29856 NODES 2 1 41478U 98067HY 16329.39828442 .00031223 00000-0 32141-3 0 9990 2 41478 51.6378 332.0883 0003568 32.0540 328.0672 15.64561778 29851 LO-87 1 41557U 16033B 16329.83867761 .00002721 00000-0 10775-3 0 9997 2 41557 97.4843 43.2612 0014905 14.5700 345.5965 15.26211785 27254 NuSat2 1 41558U 16033C 16329.78929612 .00002683 00000-0 10674-3 0 9991 2 41558 97.4869 43.2316 0014328 13.8025 346.3602 15.26079846 27241 Lapan A3 1 41603U 16040E 16330.00677514 .00000258 00000-0 15501-4 0 9999 2 41603 97.4917 28.0887 0015228 68.1498 52.3570 15.19204371 23651 Swayam 1 41607U 16040J 16329.17293822 .00002376 00000-0 11374-3 0 9991 2 41607 97.4904 27.2673 0016270 74.8301 285.4731 15.19842499 23455 Pratham 1 41783U 16059A 16329.15944782 .00000079 00000-0 24921-4 0 9993 2 41783 98.1976 26.3331 0034950 83.9083 276.6099 14.62782405 8630 OBJECT B 1 41784U 16059B 16329.82900136 .00000224 00000-0 52636-4 0 9999 2 41784 98.1976 27.0315 0033341 81.7766 278.7215 14.63145311 8697 OBJECT C 1 41785U 16059C 16329.75732575 .00000014 00000-0 12226-4 0 9990 2 41785 98.1963 26.9658 0032778 81.1320 279.3586 14.63213301 8687 OBJECT D 1 41786U 16059D 16329.76108245 .00000067 00000-0 20952-4 0 9996 2 41786 98.2243 27.4475 0001114 96.8088 263.3233 14.66306963 8702 OBJECT E 1 41787U 16059E 16329.81577509 .00000122 00000-0 32767-4 0 9995 2 41787 98.1977 27.0486 0031702 80.5175 279.9603 14.63464348 8698 OBJECT F 1 41788U 16059F 16329.74015944 .00000108 00000-0 29972-4 0 9996 2 41788 98.1957 26.9861 0030880 84.1266 276.3422 14.63643852 8687 AlSat 1N 1 41789U 16059G 16329.86330406 .00000150 00000-0 37821-4 0 9992 2 41789 98.1968 27.1432 0029801 77.1857 283.2659 14.63979232 8713 ScatSat 1 41790U 16059H 16329.74307595 .00000031 00000-0 18775-4 0 9999 2 41790 98.0964 22.1077 0012150 60.6452 299.5955 14.50109475 8637 OBJECT J 1 41791U 16059J 16329.17281246 .00000054 00000-0 20850-4 0 9993 2 41791 98.2688 26.5384 0043986 89.9197 270.7044 14.60747287 8611 OBJECT K 1 41792U 16059K 16329.17540957 .00000382 00000-0 81536-4 0 9993 2 41792 98.1983 26.4781 0029056 84.0500 276.4012 14.64108026 8608 TY-1 1 41844U 16066D 16329.52764035 -.00000070 00000-0 00000 0 0 9990 2 41844 97.4064 333.8780 0015231 231.6899 284.6307 15.21468884 2217 CAS-2T 1 41845U 16066E 16329.71768227 -.00000067 00000-0 00000 0 0 9995 2 41845 98.7825 334.4269 0367988 134.9055 228.2638 14.37656717 2114 Pegasus-1 1 41846U 16066F 16329.72667446 -.00000067 00000-0 00000 0 0 9998 2 41846 98.7866 334.4259 0373666 135.6173 227.5681 14.36779564 2113 /EX